Location: Festilli
(46.4000°N, 11.6667°E)
Time: 21:01:07
(UTC+00:00)

Resurs 01 Rocket - Pass Details

Date: 03 March 2021
Orbit: 635 x 643 km, 98.0° (Epoch: 20 April)

Event Time Altitude Azimuth Distance (km) Brightness Sun altitude
Exits shadow 19:12:39 29° 27° (NNE) 1,182 2.8 -23.1°
Drops below altitude 10° 19:15:12 10° 2° (N) 2,034 4.4 -23.5°
Sets 19:17:31 0° 354° (N) 2,949 5.3 -23.9°
